Location: *
(38.4667°N, 106.2667°E)
Time: 16:31:18
(UTC+00:00)

Daily predictions for brighter satellites

Satellite Brightness Start Highest point End
(mag) Time Altitude Azimuth Time Altitude Azimuth Time Altitude Azimuth
CSL-04 Rocket 3.5 12:01:47 10° SSE 12:07:08 82° ENE 12:12:36 10° NNW
Meteor 2-1 Rocket 4.3 12:01:53 10° NNW 12:07:26 74° W 12:12:54 10° S
Cosmos 44 3.3 12:03:28 10° SSW 12:07:35 61° SSE 12:07:35 61° SSE
Helios 1A Rocket 3.4 12:05:30 10° S 12:09:33 59° W 12:13:40 10° NNW
SJ 16-02 2.4 12:05:44 10° SW 12:09:56 44° WNW 12:12:08 25° N
Cosmos 923 Rocket 3.9 12:08:22 10° NNW 12:13:19 69° NE 12:13:19 69° NE
USA 234 4.2 12:15:27 29° NNE 12:15:27 29° NNE 12:20:43 10° NNW
Cosmos 2026 Rocket 3.8 12:09:26 10° S 12:15:30 81° E 12:19:31 23° N
Cosmos 1898 Rocket 3.4 12:12:23 10° SSW 12:17:16 73° SSE 12:17:16 73° SSE
ISS -1.5 12:16:47 10° W 12:18:40 24° WNW 12:18:40 24° WNW
X-37B 3.2 12:18:30 10° W 12:19:48 21° W 12:19:48 21° W
Cosmos 2098 Rocket 4.1 12:15:17 10° S 12:21:59 74° E 12:29:25 10° N
Cosmos 158 Rocket 4.1 12:23:42 10° NNW 12:29:02 75° WSW 12:29:28 70° SSW
Meteor 2-19 Rocket 4.4 12:23:07 10° S 12:28:31 68° SSE 12:28:31 68° SSE
ARGOS 4.4 12:43:11 10° SSW 12:48:09 39° W 12:53:09 10° NNW
CZ-2C R/B 4.0 13:00:28 34° NW 13:01:38 38° WNW 13:06:45 10° SW
USA 267 4.3 13:26:25 39° NW 13:26:25 39° NW 13:31:29 10° W
Cosmos 2333 Rocket 3.9 20:54:43 29° ENE 20:54:43 29° ENE 20:58:01 10° NE
Cosmos 2219 Rocket 3.6 21:00:58 34° E 21:00:58 34° E 21:05:02 10° NE
FALCON 9 R/B 3.7 21:06:25 27° SSE 21:06:25 27° SSE 21:08:31 10° SE
COSMOS 2428 3.8 21:11:28 37° SE 21:12:28 40° ESE 21:17:44 10° NE
ATLAS 3B CENTAUR R/B 4.5 21:16:52 29° SSW 21:17:58 30° S 21:30:11 10° SE
Haruka 4.3 21:19:10 39° SSE 21:19:10 39° SSE 21:26:48 10° E
Cosmos 2360 Rocket 4.3 21:32:55 14° N 21:32:55 14° N 21:33:48 10° N
CZ-4B R/B 4.3 21:35:01 10° SE 21:35:38 14° SE 21:35:38 14° SE
Meteor 1-24 Rocket 3.6 21:46:47 66° N 21:47:36 86° E 21:53:15 10° S
IRIDIUM 114 4.3 21:50:47 10° S 21:55:59 79° E 22:01:13 10° N
Cosmos 1844 3.6 21:57:50 65° WSW 21:57:54 65° WSW 22:03:37 10° S
Cosmos 1892 Rocket 4.3 21:56:10 23° NNE 21:58:40 51° E 22:02:56 10° SSE
Meteor 2-10 4.3 21:56:42 10° S 22:02:22 78° E 22:07:55 10° NNE
Cosmos 1953 4.2 21:59:11 10° SSE 22:02:41 30° E 22:06:11 10° NNE
ADEOS 3.5 21:58:22 10° N 22:03:10 62° NW 22:03:10 62° NW
Cosmos 1461 3.4 22:02:33 32° S 22:04:38 68° ESE 22:09:21 10° NE
IRIDIUM 103 4.2 21:59:55 10° S 22:05:07 84° W 22:10:22 10° N
GPS 2-04 Rocket1 3.4 22:05:50 47° S 22:05:50 47° S 22:09:30 10° ESE
Atlas Centaur 2 4.1 22:01:38 18° SW 22:06:48 37° SSE 22:14:25 10° E
COSMO-SKYMED 1 2.6 22:06:01 10° SSE 22:10:21 79° ENE 22:12:21 32° N
Cosmos 921 Rocket 2.8 22:10:03 19° SSW 22:13:02 89° ESE 22:17:17 10° NNE
SJ 16-02 1.4 22:18:48 52° SW 22:18:48 52° SW 22:22:41 10° S
Cosmos 540 Rocket 4.1 22:13:44 10° S 22:18:42 55° ESE 22:23:42 10° NNE
Cosmos 2034 Rocket 4.5 22:14:08 10° S 22:20:23 63° E 22:26:41 10° NNE
Cosmos 990 Rocket 4.0 22:17:29 18° NNW 22:21:18 79° ENE 22:26:26 10° SSE
Cosmos 1844 Rocket 3.6 22:23:24 29° SW 22:23:24 29° SW 22:27:10 10° SSW
IRIDIUM 106 4.3 22:18:21 10° SSW 22:23:27 56° W 22:28:35 10° N
ERS-2 2.0 22:21:16 10° SSE 22:24:54 84° ENE 22:26:25 33° N
Meteor PRIRODA 3.4 22:23:12 10° N 22:26:50 79° WNW 22:30:26 10° SSW
FALCON 9 DEB 3.3 22:26:07 47° SSW 22:26:54 66° SE 22:30:16 10° NE
Cosmos 2278 Rocket 3.0 22:23:30 10° NNW 22:29:01 50° ENE 22:34:31 10° SE
MOS 1 Rocket 3.4 22:24:30 10° SSE 22:29:40 87° ENE 22:34:33 10° N
Cosmos 1544 Rocket 3.6 22:25:25 10° S 22:29:43 75° E 22:34:02 10° N
Cosmos 1758 3.7 22:27:52 10° SSW 22:32:28 41° NW 22:35:40 10° N
Nadezhda 4 Rocket 4.3 22:28:58 10° N 22:35:04 67° E 22:41:08 10° SSE
Cosmos 2237 Rocket 2.3 22:30:54 10° SSW 22:36:33 77° ESE 22:42:14 10° NNE
Cosmos 2333 Rocket 2.9 22:36:48 29° WNW 22:37:10 30° WNW 22:42:05 10° N
Okean 1-7 Rocket 3.6 22:32:39 10° N 22:37:13 90° E 22:41:42 10° S
CZ-4B R/B 2.7 22:34:53 10° N 22:38:22 49° WNW 22:41:55 10° SSW
Cosmos 1763 Rocket 3.7 22:37:13 10° SW 22:42:06 44° WNW 22:47:05 10° N
CZ-2C R/B 4.1 22:38:35 10° SE 22:43:16 35° ENE 22:48:01 10° N
Lacrosse 4 Rocket 3.7 22:40:17 10° SSE 22:43:49 27° ESE 22:47:26 10° NE
Cosmos 2219 Rocket 2.9 22:42:48 27° W 22:43:54 29° WNW 22:48:44 10° N
Cosmos 841 Rocket 3.4 22:41:42 10° SSW 22:46:50 85° WNW 22:52:00 10° NNE
Cosmos 1898 Rocket 3.4 22:42:14 11° NNW 22:47:09 70° WSW 22:52:16 10° S
OAO 2 Rocket 3.6 22:47:19 21° WSW 22:50:27 58° S 22:55:18 10° E
Cosmos 1626 Rocket 4.0 22:47:47 10° N 22:52:15 67° E 22:56:41 10° SSE
Cosmos 1703 4.0 22:49:37 10° N 22:53:27 53° E 22:57:14 10° SSE
Cosmos 1570 Rocket 4.0 22:48:19 10° SSW 22:53:32 90° SW 22:58:48 10° NNE
CZ-2C R/B 2.8 22:50:17 10° SW 22:53:53 30° SSE 22:57:17 10° ESE
COSMOS 2428 3.5 22:53:40 17° WSW 22:56:49 28° WNW 23:01:41 10° N
Cosmos 1455 Rocket 3.7 22:52:55 10° SW 22:56:50 32° WNW 23:00:46 10° NNW
Lacrosse 5 rocket 3.2 22:55:13 10° NNW 22:58:08 20° NE 23:00:57 10° E
SKYMED 2 4.4 22:54:43 10° SSW 22:58:27 28° W 23:00:55 17° NW
Meteor 2-13 Rocket 4.4 22:53:08 10° N 22:59:19 77° W 23:05:26 10° S
Cosmos 1340 3.2 22:58:32 10° N 23:02:15 59° E 23:05:57 10° SSE
SMAP 3.6 22:59:39 10° NNE 23:04:17 61° E 23:08:52 10° S
Chandra Rocket (1) 3.7 23:02:06 10° SW 23:04:33 16° SSW 23:06:20 10° SSE
GEOS 3 Rocket 4.0 23:01:13 10° SSE 23:06:21 48° WSW 23:11:17 11° NW
Cosmos 1980 3.8 23:03:35 10° SW 23:09:05 53° WNW 23:14:39 10° NNE
Spot 2 3.8 23:05:58 10° NNE 23:10:01 84° WNW 23:14:04 10° SSW
H-2A R/B 3.6 23:07:36 10° NNW 23:10:45 27° WNW 23:13:54 10° SW
Cosmos 2208 Rocket 4.0 23:06:15 10° SSW 23:11:42 77° WNW 23:17:09 10° NNE
Cosmos 1400 Rocket 2.8 23:08:14 10° SSW 23:12:16 71° W 23:16:22 10° N
SL-19 R/B 4.1 23:08:29 10° NNE 23:12:33 78° WNW 23:16:03 10° SSW
Okean O Rocket 2.5 23:08:44 10° NNE 23:13:01 53° E 23:17:15 10° S
SL-8 R/B 4.2 23:11:11 13° NW 23:15:23 55° NNE 23:20:07 10° ESE
USA 276 3.7 23:14:35 15° W 23:16:06 21° SW 23:18:31 10° S
Cosmos 1328 4.0 23:12:59 10° N 23:16:55 75° E 23:20:49 10° SSE
AQUARIUS 4.4 23:13:34 10° NNE 23:18:05 77° ESE 23:22:33 10° S
SL-4 R/B 2.6 23:15:53 10° SW 23:19:33 57° SE 23:23:33 10° ENE
H-2A R/B 2.6 23:15:27 10° N 23:19:56 83° WNW 23:24:27 10° SSW
Cosmos 1814 Rocket 4.0 23:16:37 10° SSW 23:21:39 55° WNW 23:26:41 10° N
Cosmos 1937 Rocket 3.9 23:18:47 10° NNW 23:23:47 44° WSW 23:28:43 10° S
CZ-4B DEB 4.3 23:19:01 10° N 23:24:30 61° WNW 23:29:58 10° SSW
PSLV R/B 4.4 23:21:08 10° N 23:24:46 36° WNW 23:28:27 10° SW
NOSS 0 Rocket 4.5 23:20:58 10° WSW 23:26:34 35° WNW 23:32:11 10° N
ATLAS CENTAUR R/B 1.5 23:22:53 10° SSW 23:26:35 67° ESE 23:30:14 10° NE
NOAA 6 4.1 23:21:51 10° N 23:26:55 55° WNW 23:31:57 10° SSW
Envisat 3.5 23:22:40 10° N 23:27:21 38° WNW 23:32:01 10° SW
NOSS 3-2 (A) 3.5 23:23:24 10° SSW 23:28:52 77° ESE 23:35:05 10° NE
Cosmos 372 Rocket 4.0 23:24:42 10° NNW 23:29:58 79° WSW 23:35:11 10° SSE
Cosmos 1602 Rocket 3.7 23:27:32 10° NNW 23:31:55 59° W 23:36:18 10° S
Cosmos 1689 Rocket 3.9 23:30:40 10° SW 23:32:18 14° W 23:33:57 10° WNW
NOSS 3-2 (C) 4.4 23:32:18 10° S 23:37:34 51° ESE 23:43:28 10° NE
Cosmos 1953 3.8 23:36:30 10° WSW 23:39:05 17° WNW 23:41:43 10° NNW
Cosmos 1300 2.6 23:37:36 10° S 23:41:23 79° W 23:45:12 10° N
USA 307 3.2 23:39:32 10° SW 23:43:43 73° SE 23:47:56 10° NE
